EW9174 Weather Reports


Display with metric or nautical units.
time (UTC)temp
F
wind
direction
speed
MPH
gust
MPH
rain 1hr
in
rain 24hr
in
rain mn
in
humidity
%
barometer
mb
20260506213006 42 63 0.0 0.0 0.00 0.42 0.28 91 1020.4
20260506211507 42 63 0.0 1.0 0.00 0.42 0.28 90 1020.5
20260506210010 43 63 0.0 1.0 0.00 0.42 0.28 91 1020.0
20260506204504 43 63 0.0 1.0 0.01 0.42 0.28 93 1020.1
20260506203001 42 63 0.0 2.0 0.02 0.42 0.28 94 1020.5
20260506201558 41 63 0.0 2.0 0.03 0.42 0.28 95 1020.5
20260506200105 40 63 0.0 2.0 0.03 0.42 0.28 95 1020.2
20260506194602 39 63 0.0 2.0 0.03 0.41 0.27 96 1020.4
20260506193054 38 63 0.0 2.0 0.03 0.40 0.26 96 1020.4
20260506191601 36 63 0.0 3.0 0.03 0.39 0.25 95 1020.2
20260506190052 36 63 0.0 4.0 0.04 0.39 0.25 94 1020.0
20260506184551 36 62 0.0 3.0 0.05 0.38 0.24 95 1020.0
20260506183149 36 64 1.0 7.0 0.05 0.37 0.23 95 1020.1
20260506181556 36 60 0.0 3.0 0.05 0.36 0.22 95 1020.1
20260506180105 36 61 0.0 2.0 0.06 0.35 0.21 95 1020.0
20260506174547 36 61 0.0 2.0 0.05 0.33 0.19 95 1020.1
20260506173101 37 61 0.0 1.0 0.05 0.32 0.18 95 1020.1
20260506171545 36 61 0.0 3.0 0.06 0.31 0.17 95 1019.7
20260506170042 36 61 0.0 4.0 0.04 0.28 0.15 95 1019.4
20260506164538 36 96 1.0 3.0 0.04 0.28 0.14 95 1018.9
20260506163038 35 101 0.0 5.0 0.03 0.27 0.13 95 1018.7
20260506161536 35 76 0.0 4.0 0.01 0.25 0.11 95 1018.6
20260506160036 35 77 0.0 1.0 0.01 0.25 0.11 95 1018.5
20260506154532 34 78 0.0 0.0 0.00 0.24 0.10 95 1018.2
20260506153029 34 78 0.0 0.0 0.00 0.24 0.10 95 1017.9
20260506151529 34 78 0.0 0.0 0.00 0.24 0.10 95 1017.9
20260506150028 33 78 0.0 1.0 0.01 0.24 0.10 94 1017.9
20260506144526 33 78 0.0 2.0 0.01 0.24 0.10 94 1017.8
20260506143026 34 78 0.0 1.0 0.01 0.24 0.10 94 1017.6
20260506141525 34 78 0.0 2.0 0.01 0.24 0.10 94 1017.6
20260506140020 35 51 0.0 2.0 0.01 0.23 0.09 94 1017.4
20260506134516 36 51 0.0 1.0 0.01 0.23 0.09 95 1017.3
20260506133016 35 51 0.0 2.0 0.02 0.23 0.09 94 1016.9
20260506131511 35 51 0.0 4.0 0.02 0.23 0.09 94 1016.7
20260506130013 35 46 0.0 3.0 0.01 0.22 0.08 94 1016.3
20260506124507 35 38 0.0 4.0 0.02 0.22 0.08 94 1015.8
20260506123005 35 80 1.0 4.0 0.01 0.21 0.07 94 1015.7
20260506121503 35 57 0.0 3.0 0.02 0.21 0.07 94 1015.5
20260506120002 35 62 0.0 6.0 0.02 0.21 0.07 94 1015.3
20260506114603 35 65 0.0 4.0 0.01 0.20 0.06 94 1015.0
20260506113100 35 65 0.0 4.0 0.01 0.20 0.06 94 1014.6
20260506111559 35 67 0.0 4.0 0.00 0.19 0.05 94 1014.5
20260506110053 35 67 0.0 5.0 0.00 0.19 0.05 94 1014.3
20260506104557 36 67 1.0 9.0 0.00 0.19 0.05 94 1014.0
20260506103049 36 52 1.0 7.0 0.00 0.19 0.05 94 1014.0
20260506101547 36 72 2.0 11.0 0.00 0.19 0.05 94 1013.9
20260506100045 36 58 2.0 7.0 0.01 0.19 0.05 94 1013.8
20260506094544 36 66 1.0 6.0 0.01 0.19 0.05 94 1013.7
20260506093044 37 63 0.0 5.0 0.02 0.19 0.05 94 1013.7
20260506091542 37 66 0.0 4.0 0.03 0.19 0.05 94 1013.7
20260506090040 37 61 0.0 2.0 0.02 0.18 0.04 94 1013.5
20260506084538 36 61 0.0 1.0 0.03 0.18 0.04 94 1013.5
20260506083038 36 61 0.0 1.0 0.02 0.17 0.03 93 1013.5
20260506081530 38 61 0.0 4.0 0.01 0.16 0.02 94 1013.4
20260506080129 38 69 0.0 0.0 0.01 0.16 0.02 94 1013.2
20260506073026 38 69 0.0 1.0 0.01 0.15 0.01 94 1013.0
20260506071526 38 69 0.0 2.0 0.01 0.15 0.01 93 1012.9
20260506061524 39 69 0.0 0.0 0.00 0.14 0.00 93 1012.5
20260506044511 38 69 0.0 1.0 0.00 0.14 0.14 92 1011.9
20260506043009 38 69 0.0 2.0 0.01 0.14 0.14 92 1011.8
20260506041508 38 70 0.0 1.0 0.01 0.14 0.14 92 1011.7
20260506040009 38 70 0.0 2.0 0.02 0.14 0.14 92 1011.7
20260506034506 38 69 0.0 1.0 0.02 0.14 0.14 92 1011.4
20260506033004 39 69 0.0 2.0 0.02 0.13 0.13 92 1011.2
20260506031600 39 66 0.0 2.0 0.02 0.13 0.13 91 1010.8
20260506030103 39 65 0.0 3.0 0.02 0.12 0.12 91 1010.3
20260506024610 39 65 0.0 3.0 0.03 0.12 0.12 91 1009.9
20260506023102 39 65 0.0 1.0 0.02 0.11 0.11 91 1009.9
20260506021557 39 65 0.0 2.0 0.03 0.11 0.11 90 1009.8
20260506020047 39 63 0.0 3.0 0.03 0.10 0.10 90 1009.0
20260506014545 39 61 0.0 3.0 0.03 0.09 0.09 90 1008.4
20260506013046 39 61 0.0 5.0 0.04 0.09 0.09 89 1008.3
20260506011607 39 65 0.0 2.0 0.04 0.08 0.08 89 1008.0
20260506010036 40 54 1.0 4.0 0.05 0.07 0.07 88 1006.3
20260506004541 41 42 1.0 3.0 0.05 0.06 0.06 87 1006.7
20260506003031 41 36 0.0 1.0 0.05 0.05 0.05 86 1007.1
20260506001530 42 36 0.0 1.0 0.03 0.03 0.03 84 1007.0
20260506000023 43 36 0.0 1.0 0.02 0.02 0.02 82 1006.3
20260505234521 44 35 0.0 1.0 0.01 0.01 0.01 80 1006.4
20260505233027 44 36 0.0 2.0 0.00 0.00 0.00 76 1006.2
20260505231520 45 36 0.0 1.0 0.00 0.00 0.00 73 1006.0
20260505230014 45 34 0.0 1.0 0.00 0.00 0.00 71 1005.8
20260505224513 46 34 0.0 2.0 0.00 0.00 0.00 70 1005.9
20260505223016 46 25 0.0 2.0 0.00 0.00 0.00 70 1006.0
20260505221511 46 12 0.0 2.0 0.00 0.00 0.00 69 1005.9
20260505220022 46 11 0.0 3.0 0.00 0.00 0.00 69 1006.0
20260505214517 47 5 0.0 2.0 0.00 0.00 0.00 69 1005.8